SCP
0 0 0 0 0 0 0 0 -0 -0 -0 -0 -0 -0 -0 -0 0 -0 -0 -0 -0 -0 -0 0 1 1 1 1 1 2 2 2
0 0 0 0 0 0 0 0 0 -0 0 -0 -0 -0 0 -0 -0 -0 0 0 -0 -0 0 0 1 1 1 1 2 2 2 3
0 0 0 0 0 0 0 0 0 0 0 0 0 -0 -0 -0 -0 -0 -0 -0 0 0 0 0 0 0 0 1 1 2 2 3
-0 0 0 0 0 0 0 0 0 0 0 0 -0 -0 -0 0 0 0 0 0 0 0 0 0 0 0 0 1 1 1 1 1
0 0 0 0 0 0 0 0 0 -0 0 0 -0 0 0 0 0 0 0 0 0 0 0 0 0 0 0 0 0 0 0 0
0 0 0 0 0 0 0 0 0 0 0 0 0 0 0 0 0 0 0 0 0 0 0 0 0 0 0 0 0 0 0 0
0 0 0 0 0 0 0 0 0 0 0 0 0 0 0 0 0 0 0 0 0 0 0 0 0 0 0 0 0 0 0 0
0 0 0 0 0 0 0 0 0 0 0 0 0 0 0 0 0 0 0 0 0 0 0 0 0 0 0 0 0 0 0 0
0 0 0 0 0 0 0 0 0 0 0 0 0 0 0 0 0 0 0 0 0 0 0 0 0 0 0 0 0 0 0 0
0 0 0 0 0 0 0 0 0 0 0 0 0 0 0 0 0 0 0 0 0 0 0 0 0 0 0 0 0 0 0 0
0 0 0 0 0 0 0 0 0 0 0 0 0 0 0 0 0 0 0 0 0 0 0 0 0 0 0 0 0 0 0 0
0 -0 0 0 0 0 0 0 0 0 0 0 0 0 0 0 0 0 0 0 0 0 0 0 0 0 0 0 0 0 0 0
0 -0 0 0 0 0 0 0 0 0 0 0 0 0 1 0 0 0 0 0 0 0 0 0 0 0 0 0 0 0 0 0
0 0 0 0 0 0 0 0 0 0 0 0 0 0 0 0 0 0 0 0 0 0 0 0 0 0 0 0 0 0 0 0
0 0 0 0 0 0 0 0 0 0 0 0 0 0 0 0 0 0 0 0 0 0 0 0 0 0 0 0 0 0 0 0
0 0 0 0 0 0 0 0 0 0 0 0 0 0 0 0 0 0 0 0 0 0 0 0 0 0 0 0 0 0 0 0
0 0 0 0 0 0 0 0 0 0 0 0 0 0 0 0 0 0 0 0 0 0 0 0 0 0 0 0 0 0 0 0
0 0 0 0 0 0 0 0 0 0 0 0 0 0 0 0 0 0 0 0 0 0 0 0 0 0 0 0 0 0 0 0
0 0 0 0 0 0 0 0 0 0 0 0 0 0 0 0 0 0 0 0 0 0 0 0 0 0 0 0 0 0 0 0
Wind_Speed_500mb
8 14 15 20 15 12 12 3 11 12 11 16 18 19 22 25 25 28 31 33 35 36 34 33 31 27 21 16 11 9 11 16
10 11 7 17 4 13 11 5 6 12 5 17 23 20 22 26 32 35 38 39 41 43 40 37 35 35 35 34 31 28 26 26
9 23 20 12 18 8 6 10 6 9 8 18 16 19 24 29 33 34 35 36 36 37 35 35 34 34 35 36 34 33 34 35
41 12 6 16 18 19 14 18 7 13 11 10 13 23 30 32 33 33 33 33 34 34 32 30 31 31 29 27 31 36 39 37
20 8 10 20 18 17 8 5 9 16 13 16 22 26 30 34 33 32 32 32 31 27 27 25 26 24 23 24 25 29 32 30
20 11 8 15 20 22 22 13 16 20 25 21 24 26 29 31 30 29 28 26 24 23 22 20 18 18 21 21 22 25 29 30
19 6 5 8 19 21 21 7 13 16 8 26 23 24 31 30 27 24 23 19 18 17 13 12 14 16 19 21 23 29 32 36
3 7 8 12 10 12 8 3 2 5 12 22 30 28 27 25 22 20 18 15 13 10 9 11 14 18 22 26 29 34 39 41
11 17 8 17 15 10 9 5 3 8 16 23 27 28 28 23 17 15 13 10 5 5 9 11 17 22 27 30 33 37 40 44
13 7 6 9 1 2 3 1 4 8 19 26 27 25 20 16 15 12 8 3 2 8 12 16 20 23 27 34 37 41 42 40
3 5 21 18 9 13 17 15 11 12 20 26 25 22 16 14 12 10 6 2 5 10 13 15 17 26 33 38 40 39 37 41
26 37 29 11 19 10 5 13 15 24 28 32 31 17 13 22 15 11 7 3 7 11 12 16 25 36 38 38 36 36 39 42
22 20 9 11 16 12 12 8 21 26 30 30 17 10 21 21 15 9 5 2 3 9 15 22 28 34 35 34 34 36 39 43
19 24 13 15 16 7 10 19 23 27 26 23 14 18 19 16 12 7 4 1 7 14 21 25 28 33 33 32 35 37 41 42
10 10 7 10 12 10 15 26 25 25 24 20 19 16 14 12 9 6 4 2 11 18 24 27 29 30 30 33 37 40 39 40
5 8 8 9 12 20 27 27 27 23 20 15 12 10 10 9 10 7 2 6 13 19 24 26 30 27 28 32 38 38 37 37
8 6 7 12 20 25 28 29 26 20 15 10 9 10 11 12 10 5 2 7 14 19 21 23 26 26 30 36 40 38 36 34
4 25 14 30 32 30 31 28 22 18 15 11 8 9 10 8 6 3 3 9 13 17 20 22 23 26 33 36 37 36 36 35
7 10 8 33 37 32 30 25 19 16 15 14 10 7 5 7 6 0 4 11 14 16 17 19 21 25 30 34 35 35 35 36
Wind_Direction_500mb
193 196 241 160 224 339 295 182 261 127 119 142 116 85 102 104 99 90 88 88 90 86 83 82 79 78 82 80 60 27 350 336
112 198 217 272 119 204 223 197 266 133 228 102 156 112 114 106 102 99 99 97 92 88 85 81 78 78 75 68 60 49 33 20
200 206 196 174 217 240 324 294 308 220 143 90 127 136 127 116 112 110 105 100 95 89 85 82 78 75 70 61 49 34 19 6
242 123 295 253 256 214 228 174 240 310 84 85 124 137 132 122 119 114 110 105 99 95 89 81 75 65 56 45 29 16 8 2
195 191 191 218 193 243 264 267 183 284 105 119 127 134 134 130 124 120 114 105 99 93 83 72 64 56 44 34 22 7 2 354
287 167 121 193 190 215 227 209 151 240 121 154 147 146 143 133 127 122 114 106 100 88 80 73 59 41 29 14 8 356 351 346
304 299 218 190 173 187 228 319 273 41 340 151 157 153 149 137 131 123 112 103 94 84 78 52 34 21 7 356 345 343 336 331
141 33 197 180 173 202 216 222 245 294 105 132 150 143 150 147 142 130 120 109 98 73 37 15 8 2 348 338 333 330 328 324
185 6 323 211 168 180 127 195 314 228 93 146 161 166 161 155 151 142 129 119 100 26 355 348 349 343 341 339 334 331 326 326
172 356 245 39 201 273 42 9 150 110 135 160 163 161 158 157 155 148 132 118 323 324 327 329 331 334 338 335 333 331 331 330
14 315 249 248 198 179 192 150 176 126 141 149 147 149 160 161 155 158 164 228 306 325 331 337 341 341 338 337 333 333 331 330
188 232 226 235 142 148 190 178 161 155 157 157 164 199 155 171 167 168 177 241 311 321 329 340 344 338 340 337 338 331 331 330
212 241 128 123 160 161 214 93 156 161 162 162 184 45 123 157 167 177 191 249 333 343 348 348 344 343 343 340 334 335 330 331
230 227 215 153 151 249 94 137 148 155 163 163 135 133 141 154 163 180 197 249 345 347 346 344 345 346 342 338 338 336 337 336
346 41 92 142 70 119 139 142 146 149 156 154 146 148 154 162 180 181 187 310 345 344 339 345 345 347 343 341 339 340 339 336
217 103 103 132 128 134 139 140 141 142 144 150 151 156 169 177 173 175 234 336 342 342 343 340 347 351 349 344 346 346 341 341
103 135 150 163 156 147 140 136 133 133 136 140 154 169 176 169 167 190 306 344 350 346 340 347 351 352 356 353 351 349 346 346
267 165 213 167 167 159 147 140 136 134 134 142 168 172 170 172 184 203 331 349 349 347 345 350 354 1 360 0 359 356 356 348
325 159 159 157 157 155 146 141 137 140 141 142 142 165 194 204 192 336 359 359 353 352 353 355 1 2 4 2 1 0 360 354
Wind_Speed_850mb
8 14 15 20 15 12 12 3 11 12 11 16 18 19 22 25 25 28 31 33 35 36 34 33 31 27 21 16 11 9 11 16
10 11 7 17 4 13 11 5 6 12 5 17 23 20 22 26 32 35 38 39 41 43 40 37 35 35 35 34 31 28 26 26
9 23 20 12 18 8 6 10 6 9 8 18 16 19 24 29 33 34 35 36 36 37 35 35 34 34 35 36 34 33 34 35
41 12 6 16 18 19 14 18 7 13 11 10 13 23 30 32 33 33 33 33 34 34 32 30 31 31 29 27 31 36 39 37
20 8 10 20 18 17 8 5 9 16 13 16 22 26 30 34 33 32 32 32 31 27 27 25 26 24 23 24 25 29 32 30
20 11 8 15 20 22 22 13 16 20 25 21 24 26 29 31 30 29 28 26 24 23 22 20 18 18 21 21 22 25 29 30
19 6 5 8 19 21 21 7 13 16 8 26 23 24 31 30 27 24 23 19 18 17 13 12 14 16 19 21 23 29 32 36
3 7 8 12 10 12 8 3 2 5 12 22 30 28 27 25 22 20 18 15 13 10 9 11 14 18 22 26 29 34 39 41
11 17 8 17 15 10 9 5 3 8 16 23 27 28 28 23 17 15 13 10 5 5 9 11 17 22 27 30 33 37 40 44
13 7 6 9 1 2 3 1 4 8 19 26 27 25 20 16 15 12 8 3 2 8 12 16 20 23 27 34 37 41 42 40
3 5 21 18 9 13 17 15 11 12 20 26 25 22 16 14 12 10 6 2 5 10 13 15 17 26 33 38 40 39 37 41
26 37 29 11 19 10 5 13 15 24 28 32 31 17 13 22 15 11 7 3 7 11 12 16 25 36 38 38 36 36 39 42
22 20 9 11 16 12 12 8 21 26 30 30 17 10 21 21 15 9 5 2 3 9 15 22 28 34 35 34 34 36 39 43
19 24 13 15 16 7 10 19 23 27 26 23 14 18 19 16 12 7 4 1 7 14 21 25 28 33 33 32 35 37 41 42
10 10 7 10 12 10 15 26 25 25 24 20 19 16 14 12 9 6 4 2 11 18 24 27 29 30 30 33 37 40 39 40
5 8 8 9 12 20 27 27 27 23 20 15 12 10 10 9 10 7 2 6 13 19 24 26 30 27 28 32 38 38 37 37
8 6 7 12 20 25 28 29 26 20 15 10 9 10 11 12 10 5 2 7 14 19 21 23 26 26 30 36 40 38 36 34
4 25 14 30 32 30 31 28 22 18 15 11 8 9 10 8 6 3 3 9 13 17 20 22 23 26 33 36 37 36 36 35
7 10 8 33 37 32 30 25 19 16 15 14 10 7 5 7 6 0 4 11 14 16 17 19 21 25 30 34 35 35 35 36
Wind_Direction_850mb
193 196 241 160 224 339 295 182 261 127 119 142 116 85 102 104 99 90 88 88 90 86 83 82 79 78 82 80 60 27 350 336
112 198 217 272 119 204 223 197 266 133 228 102 156 112 114 106 102 99 99 97 92 88 85 81 78 78 75 68 60 49 33 20
200 206 196 174 217 240 324 294 308 220 143 90 127 136 127 116 112 110 105 100 95 89 85 82 78 75 70 61 49 34 19 6
242 123 295 253 256 214 228 174 240 310 84 85 124 137 132 122 119 114 110 105 99 95 89 81 75 65 56 45 29 16 8 2
195 191 191 218 193 243 264 267 183 284 105 119 127 134 134 130 124 120 114 105 99 93 83 72 64 56 44 34 22 7 2 354
287 167 121 193 190 215 227 209 151 240 121 154 147 146 143 133 127 122 114 106 100 88 80 73 59 41 29 14 8 356 351 346
304 299 218 190 173 187 228 319 273 41 340 151 157 153 149 137 131 123 112 103 94 84 78 52 34 21 7 356 345 343 336 331
141 33 197 180 173 202 216 222 245 294 105 132 150 143 150 147 142 130 120 109 98 73 37 15 8 2 348 338 333 330 328 324
185 6 323 211 168 180 127 195 314 228 93 146 161 166 161 155 151 142 129 119 100 26 355 348 349 343 341 339 334 331 326 326
172 356 245 39 201 273 42 9 150 110 135 160 163 161 158 157 155 148 132 118 323 324 327 329 331 334 338 335 333 331 331 330
14 315 249 248 198 179 192 150 176 126 141 149 147 149 160 161 155 158 164 228 306 325 331 337 341 341 338 337 333 333 331 330
188 232 226 235 142 148 190 178 161 155 157 157 164 199 155 171 167 168 177 241 311 321 329 340 344 338 340 337 338 331 331 330
212 241 128 123 160 161 214 93 156 161 162 162 184 45 123 157 167 177 191 249 333 343 348 348 344 343 343 340 334 335 330 331
230 227 215 153 151 249 94 137 148 155 163 163 135 133 141 154 163 180 197 249 345 347 346 344 345 346 342 338 338 336 337 336
346 41 92 142 70 119 139 142 146 149 156 154 146 148 154 162 180 181 187 310 345 344 339 345 345 347 343 341 339 340 339 336
217 103 103 132 128 134 139 140 141 142 144 150 151 156 169 177 173 175 234 336 342 342 343 340 347 351 349 344 346 346 341 341
103 135 150 163 156 147 140 136 133 133 136 140 154 169 176 169 167 190 306 344 350 346 340 347 351 352 356 353 351 349 346 346
267 165 213 167 167 159 147 140 136 134 134 142 168 172 170 172 184 203 331 349 349 347 345 350 354 1 360 0 359 356 356 348
325 159 159 157 157 155 146 141 137 140 141 142 142 165 194 204 192 336 359 359 353 352 353 355 1 2 4 2 1 0 360 354